Overview Statistics Trail Chart Weather Telemetry Raw packets
 

This is the latest recevied weather packets stored in our database for station/object N0KWA. If no packets are shown the sender has not sent any weather packets the latest 10 day(s).

<< 16 17 18 19 20 21 22 >>
Time Temp. Humidity Pressure Rain* Wind** Luminosity Snow
1788448449 27.78° C 97% 1018.2 hPa 0 mm - 18 W/m² -
1788448144 27.22° C 99% 1018 hPa 0 mm - 17 W/m² -
1788447839 27.22° C 99% 1018 hPa 0 mm - 16 W/m² -
1788447534 26.67° C 99% 1017.9 hPa 0 mm - 15 W/m² -
1788447229 26.67° C 99% 1017.9 hPa 0 mm - 17 W/m² -
1788446928 26.11° C 99% 1017.9 hPa 0 mm - 14 W/m² -
1788446624 26.67° C 99% 1018.1 hPa 0 mm - 16 W/m² -
1788446319 26.67° C 99% 1018 hPa 0 mm - 17 W/m² -
1788446016 26.11° C 99% 1017.9 hPa 0 mm - 13 W/m² -
1788445711 26.67° C 99% 1017.8 hPa 0 mm - 13 W/m² -
1788445407 26.11° C 99% 1018.1 hPa 0 mm - 12 W/m² -
1788445103 26.11° C 99% 1017.9 hPa 0 mm - 12 W/m² -
1788444799 26.11° C 99% 1018.1 hPa 0 mm - 12 W/m² -
1788444499 26.11° C 99% 1018.3 hPa 0 mm - 12 W/m² -
1788444193 25.56° C 99% 1018 hPa 0 mm - 11 W/m² -
1788443889 25.56° C 99% 1017.8 hPa 0 mm - 10 W/m² -
1788443584 25.56° C 99% 1017.8 hPa 0 mm - 10 W/m² -
1788443283 25.56° C 99% 1017.9 hPa 0 mm - 10 W/m² -
1788442979 25.56° C 99% 1017.9 hPa 0 mm - 10 W/m² -
1788442676 25° C 99% 1018.1 hPa 0 mm - 9 W/m² -
1788442372 25° C 99% 1018.1 hPa 0 mm - 9 W/m² -
1788442066 24.44° C 99% 1018.2 hPa 0 mm - 9 W/m² -
1788441762 24.44° C 99% 1018.1 hPa 0 mm - 8 W/m² -
1788441457 23.89° C 99% 1018 hPa 0 mm - 7 W/m² -
1788441156 23.89° C 99% 1018.2 hPa 0 mm - 6 W/m² -

* Rain latest hour (hover to see other rain measurements)
** Current wind speed in m/s (hover to see current wind gust speed)